Location: Marstown
(39.5056°N, 77.0820°W)
Time: 08:56:03
(UTC-04:00)

OTV 5 (USA 277) - Visible Passes

Search period start: 21 May 2018 00:00
Search period end: 31 May 2018 00:00
Orbit: 308 x 326 km, 54.5° (Epoch: 06 May)

Date Brightness Start Highest point End Pass type
(mag) Time Alt. Az. Time Alt. Az. Time Alt. Az.
28 May ? 04:40:45 10° S 04:42:52 21° SE 04:45:02 10° ENE visible
29 May ? 04:54:46 13° SW 04:57:08 68° SE 04:59:53 10° NE visible
30 May ? 03:37:50 12° ESE 03:37:50 12° ESE 03:38:48 10° E visible
30 May ? 05:08:59 10° WSW 05:11:34 37° NW 05:14:10 10° NNE visible
